User: anonymous   Login
Location: Sagn�
(15.2046°N, 12.7898°W)
Time: 03:35:21
(UTC+00:00)
Language:

Okean 3 Rocket - Orbit

View from above orbital plane
View from above orbital plane
View from above satellite
View from above satellite

Ground track
Ground track

The orbit data is extracted from the following two-line orbital elements,

1 21398U 91039B   21210.54732346  .00000071  00000-0  64208-5 0  9998
2 21398  82.5218 266.5797 0020003 296.4290  63.4870 14.79808837605194
Epoch (UTC): 29 July 2021 13:08:08
Eccentricity: 0.0020003
inclination: 82.5218°
perigee height: 616 km
apogee height: 644 km
right ascension of ascending node: 266.5797°
argument of perigee: 296.4290°
revolutions per day: 14.79808837
mean anomaly at epoch: 63.4870°
orbit number at epoch: 60519

The dashed part of the orbit path shows where the satellite is in the earth's shadow,  

DLR